User: anonymous   Login
Location: Wildlife_Club
(35.6000°N, 81.4330°W)
Time: 03:23:03
(UTC-05:00)
Language:

Cosmos 1782 - Orbit

View from above orbital plane
View from above orbital plane
View from above satellite
View from above satellite

Ground track
Ground track

The orbit data is extracted from the following two-line orbital elements,

1 16986U 86074A   17345.44021559  .00000837  00000-0  54237-4 0  9998
2 16986  82.5053 308.7687 0012834  91.9395 268.3302 15.06739270697543
Epoch (UTC): 11 December 2017 10:33:54
Eccentricity: 0.0012834
inclination: 82.5053°
perigee height: 537 km
apogee height: 555 km
right ascension of ascending node: 308.7687°
argument of perigee: 91.9395°
revolutions per day: 15.06739270
mean anomaly at epoch: 268.3302°
orbit number at epoch: 69754

The dashed part of the orbit path shows where the satellite is in the earth's shadow,  

DLR